User: anonymous
Location: Bowman Observatory
(41.0326°N, 73.6210°W)
Time: 01:06:45
(UTC-04:00)
Language:

Cosmos 2297 - Orbit

View from above orbital plane
View from above orbital plane
View from above satellite
View from above satellite

Ground track
Ground track

The orbit data is extracted from the following two-line orbital elements,

1 23404U 94077A   14237.35593612 -.00000347  00000-0 -15896-3 0  8448
2 23404 071.0119 282.3742 0018539 270.7305 150.2330 14.13396220 18972
Epoch (UTC): 25 August 2014 08:32:32
Eccentricity: 0.0018539
inclination: 71.0119°
perigee height: 834 km
apogee height: 861 km
right ascension of ascending node: 282.3742°
argument of perigee: 270.7305°
revolutions per day: 14.13396220
mean anomaly at epoch: 150.2330°
orbit number at epoch: 1897

The dashed part of the orbit path shows where the satellite is in the earth's shadow,  

DLR